| time (UTC) | temp F | wind direction | speed knots | gust knots | rain 1hr in | rain 24hr in | rain mn in | humidity % | barometer mb |
| 20260504212525 | 77 | 221 | 4.3 | 7.8 | 0.00 | 0.00 | 0.00 | 33 | 1009.6 |
| 20260504211455 | 77 | 203 | 2.6 | 7.0 | 0.00 | 0.00 | 0.00 | 33 | 1009.5 |
| 20260504205356 | 77 | 181 | 0.0 | 5.2 | 0.00 | 0.00 | 0.00 | 32 | 1009.6 |
| 20260504203355 | 79 | 192 | 0.0 | 8.7 | 0.00 | 0.00 | 0.00 | 31 | 1009.7 |
| 20260504202355 | 79 | 144 | 1.7 | 2.6 | 0.00 | 0.00 | 0.00 | 30 | 1009.8 |
| 20260504201326 | 79 | 217 | 4.3 | 7.0 | 0.00 | 0.00 | 0.00 | 29 | 1009.9 |
| 20260504194225 | 79 | 207 | 1.7 | 2.6 | 0.00 | 0.00 | 0.00 | 29 | 1010.2 |
| 20260504193225 | 79 | 229 | 1.7 | 5.2 | 0.00 | 0.00 | 0.00 | 30 | 1010.4 |
| 20260504192225 | 79 | 204 | 1.7 | 6.1 | 0.00 | 0.00 | 0.00 | 30 | 1010.6 |
| 20260504191155 | 78 | 31 | 1.7 | 4.3 | 0.00 | 0.00 | 0.00 | 32 | 1010.8 |
| 20260504190155 | 78 | 191 | 0.0 | 2.6 | 0.00 | 0.00 | 0.00 | 31 | 1011.0 |
| 20260504185125 | 79 | 181 | 0.9 | 4.3 | 0.00 | 0.00 | 0.00 | 30 | 1011.3 |
| 20260504182055 | 77 | 233 | 0.0 | 0.9 | 0.00 | 0.00 | 0.00 | 33 | 1011.8 |
| 20260504180025 | 77 | 184 | 0.9 | 2.6 | 0.00 | 0.00 | 0.00 | 32 | 1012.1 |
| 20260504174025 | 76 | 235 | 0.9 | 4.3 | 0.00 | 0.00 | 0.00 | 34 | 1012.4 |
| 20260504171955 | 75 | 137 | 0.9 | 0.0 | 0.00 | 0.00 | 0.00 | 34 | 1012.6 |
| 20260504140425 | 62 | 219 | 0.0 | 0.0 | 0.00 | 0.00 | 0.00 | 50 | 1014.3 |
| 20260504130325 | 57 | 322 | 0.9 | 0.9 | 0.00 | 0.00 | 0.00 | 57 | 1015.0 |
| 20260504081525 | 53 | 263 | 0.0 | 0.0 | 0.00 | 0.00 | 0.00 | 69 | 1015.4 |
| 20260504045025 | 49 | 263 | 0.0 | 0.0 | 0.00 | 0.00 | 0.00 | 74 | 1015.5 |
| 20260504044025 | 48 | 263 | 0.0 | 0.0 | 0.00 | 0.00 | 0.00 | 74 | 1015.5 |
| 20260504042025 | 48 | 263 | 0.0 | 0.0 | 0.00 | 0.00 | 0.00 | 73 | 1015.4 |
| 20260504041025 | 48 | 263 | 0.0 | 0.0 | 0.00 | 0.00 | 0.00 | 72 | 1015.5 |
| 20260504034956 | 48 | 263 | 0.0 | 0.0 | 0.00 | 0.00 | 0.00 | 70 | 1015.6 |
| 20260504033925 | 49 | 263 | 0.0 | 0.0 | 0.00 | 0.00 | 0.00 | 69 | 1015.4 |
| 20260504032939 | 49 | 263 | 0.0 | 0.0 | 0.00 | 0.00 | 0.00 | 68 | 1015.4 |
| 20260504032855 | 49 | 263 | 0.0 | 0.0 | 0.00 | 0.00 | 0.00 | 68 | 1015.4 |
| 20260504031021 | 49 | 263 | 0.0 | 0.0 | 0.00 | 0.00 | 0.00 | 67 | 1015.3 |
| 20260504030825 | 49 | 263 | 0.0 | 0.0 | 0.00 | 0.00 | 0.00 | 67 | 1015.3 |
| 20260504025755 | 50 | 263 | 0.0 | 0.0 | 0.00 | 0.00 | 0.00 | 66 | 1015.3 |
| 20260504024921 | 50 | 263 | 0.0 | 0.0 | 0.00 | 0.00 | 0.00 | 65 | 1015.0 |
| 20260504024725 | 50 | 263 | 0.0 | 0.0 | 0.00 | 0.00 | 0.00 | 65 | 1015.1 |
| 20260504023655 | 50 | 263 | 0.0 | 0.0 | 0.00 | 0.00 | 0.00 | 65 | 1015.0 |
| 20260504022655 | 50 | 263 | 0.0 | 0.0 | 0.00 | 0.00 | 0.00 | 64 | 1015.0 |
| 20260504021625 | 51 | 263 | 0.0 | 0.0 | 0.00 | 0.00 | 0.00 | 64 | 1014.9 |
| 20260504020625 | 51 | 263 | 0.0 | 0.0 | 0.00 | 0.00 | 0.00 | 63 | 1015.0 |
| 20260504014555 | 52 | 263 | 0.0 | 0.0 | 0.00 | 0.00 | 0.00 | 59 | 1014.8 |
| 20260504013639 | 53 | 263 | 0.0 | 0.0 | 0.00 | 0.00 | 0.00 | 57 | 1014.7 |
| 20260504013525 | 53 | 263 | 0.0 | 0.0 | 0.00 | 0.00 | 0.00 | 57 | 1014.7 |
| 20260504012651 | 53 | 263 | 0.0 | 0.0 | 0.00 | 0.00 | 0.00 | 55 | 1014.7 |
| 20260504012455 | 53 | 263 | 0.0 | 0.0 | 0.00 | 0.00 | 0.00 | 55 | 1014.7 |
| 20260504011455 | 54 | 263 | 0.0 | 0.0 | 0.00 | 0.00 | 0.00 | 52 | 1014.7 |
| 20260504005455 | 56 | 263 | 0.0 | 0.0 | 0.00 | 0.00 | 0.00 | 48 | 1014.6 |
| 20260504004455 | 56 | 263 | 0.0 | 0.0 | 0.00 | 0.00 | 0.00 | 47 | 1014.5 |
| 20260504003455 | 57 | 263 | 0.0 | 0.0 | 0.00 | 0.00 | 0.00 | 45 | 1014.4 |
| 20260504002627 | 58 | 263 | 0.0 | 0.0 | 0.00 | 0.00 | 0.00 | 43 | 1014.3 |
| 20260504002425 | 58 | 263 | 0.0 | 0.0 | 0.00 | 0.00 | 0.00 | 43 | 1014.3 |
| 20260504001425 | 59 | 263 | 0.0 | 0.0 | 0.00 | 0.00 | 0.00 | 41 | 1014.3 |
| 20260503233325 | 62 | 263 | 0.0 | 0.0 | 0.00 | 0.00 | 0.00 | 35 | 1014.0 |
| 20260503225225 | 64 | 293 | 0.9 | 4.3 | 0.00 | 0.00 | 0.00 | 32 | 1013.9 |
| 20260503224225 | 65 | 268 | 0.0 | 0.0 | 0.00 | 0.00 | 0.00 | 32 | 1013.9 |
| 20260503215125 | 66 | 193 | 0.0 | 0.0 | 0.00 | 0.00 | 0.00 | 30 | 1014.0 |